Wetterdaten: aktuell Donnerstag, 20.02.2020 05:42
Datum Zeit Temp. I. Temp. 2m Temp. 5cm Temp. Lager Feuchte I. Feuchte 2m Luftdruck Regen Wind Richtung Richtung Taupunkt Windchill Windben
20.02.2020 05:42 22,4 C -2,0 C -4,5 C 11,8 C 42 % 76 % 1018,9 hPa 0,0 l/m 3,4 km/h (1 Bft) SW 225 -5,6 C -2,0 C 5,1 km/h (1 Bft)
20.02.2020 05:40 22,4 C -1,9 C -4,6 C 11,8 C 42 % 76 % 1018,9 hPa 0,0 l/m 3,5 km/h (1 Bft) W-SW 247 -5,6 C -1,9 C 6,3 km/h (2 Bft)
20.02.2020 05:38 22,4 C -1,9 C -4,6 C 11,8 C 42 % 76 % 1018,9 hPa 0,0 l/m 3,7 km/h (1 Bft) W 270 -5,6 C -1,9 C 6,3 km/h (2 Bft)
20.02.2020 05:36 22,4 C -1,7 C -3,8 C 11,8 C 42 % 76 % 1018,9 hPa 0,0 l/m 3,9 km/h (1 Bft) SW 225 -5,4 C -1,7 C 5,1 km/h (1 Bft)
20.02.2020 05:34 22,4 C -1,7 C -3,9 C 11,8 C 42 % 76 % 1018,9 hPa 0,0 l/m 4,2 km/h (1 Bft) SW 225 -5,4 C -1,7 C 8,9 km/h (2 Bft)
20.02.2020 05:32 22,4 C -1,6 C -4,3 C 11,8 C 42 % 76 % 1018,9 hPa 0,0 l/m 4,5 km/h (1 Bft) W 270 -5,3 C -1,6 C 8,9 km/h (2 Bft)
20.02.2020 05:30 22,4 C -1,6 C -3,8 C 11,8 C 42 % 76 % 1018,9 hPa 0,0 l/m 4,7 km/h (1 Bft) W-NW 292 -5,3 C -1,6 C 7,7 km/h (2 Bft)
20.02.2020 05:28 22,4 C -1,5 C -3,4 C 11,9 C 42 % 76 % 1018,9 hPa 0,0 l/m 4,8 km/h (1 Bft) SW 225 -5,2 C -1,5 C 8,0 km/h (2 Bft)
20.02.2020 05:26 22,4 C -1,4 C -3,4 C 11,9 C 42 % 76 % 1018,9 hPa 0,0 l/m 4,8 km/h (1 Bft) W-SW 247 -5,1 C -1,4 C 10,1 km/h (2 Bft)
20.02.2020 05:24 22,4 C -1,4 C -3,3 C 11,8 C 42 % 76 % 1018,9 hPa 0,0 l/m 5,0 km/h (1 Bft) SW 225 -5,1 C -1,4 C 10,1 km/h (2 Bft)
20.02.2020 05:22 22,4 C -1,4 C -3,4 C 11,9 C 42 % 76 % 1018,9 hPa 0,0 l/m 5,0 km/h (1 Bft) W-SW 247 -5,1 C -1,4 C 11,1 km/h (2 Bft)
20.02.2020 05:20 22,4 C -1,4 C -3,4 C 11,9 C 42 % 76 % 1018,9 hPa 0,0 l/m 4,8 km/h (1 Bft) SW 225 -5,1 C -1,4 C 11,1 km/h (2 Bft)
20.02.2020 05:18 22,4 C -1,2 C -3,3 C 11,9 C 42 % 76 % 1018,9 hPa 0,0 l/m 4,8 km/h (1 Bft) SO 135 -4,9 C -1,2 C 9,7 km/h (2 Bft)
20.02.2020 05:16 22,4 C -1,4 C -3,4 C 11,9 C 42 % 76 % 1018,9 hPa 0,0 l/m 4,8 km/h (1 Bft) W-SW 247 -5,1 C -1,4 C 13,0 km/h (3 Bft)
20.02.2020 05:14 22,4 C -1,2 C -3,3 C 11,9 C 42 % 76 % 1018,9 hPa 0,0 l/m 4,8 km/h (1 Bft) W-SW 247 -4,9 C -1,2 C 13,0 km/h (3 Bft)
20.02.2020 05:12 22,4 C -1,2 C -3,3 C 11,9 C 42 % 76 % 1018,9 hPa 0,0 l/m 4,5 km/h (1 Bft) SW 225 -4,9 C -1,2 C 7,7 km/h (2 Bft)
20.02.2020 05:10 22,4 C -1,4 C -3,4 C 11,9 C 42 % 76 % 1018,9 hPa 0,0 l/m 4,8 km/h (1 Bft) W-SW 247 -5,1 C -1,4 C 10,1 km/h (2 Bft)
20.02.2020 05:08 22,5 C -1,4 C -3,4 C 11,9 C 42 % 76 % 1018,9 hPa 0,0 l/m 4,8 km/h (1 Bft) NW 315 -5,1 C -1,4 C 10,1 km/h (2 Bft)
20.02.2020 05:06 22,5 C -1,4 C -3,6 C 11,9 C 42 % 76 % 1018,9 hPa 0,0 l/m 4,8 km/h (1 Bft) SW 225 -5,1 C -1,4 C 10,4 km/h (2 Bft)
20.02.2020 05:04 22,5 C -1,2 C -3,8 C 11,9 C 42 % 76 % 1018,9 hPa 0,0 l/m 4,5 km/h (1 Bft) W-SW 247 -4,9 C -1,2 C 10,4 km/h (2 Bft)
20.02.2020 05:02 22,5 C -1,2 C -3,3 C 11,9 C 42 % 76 % 1018,9 hPa 0,0 l/m 5,0 km/h (1 Bft) W-SW 247 -4,9 C -1,2 C 15,4 km/h (3 Bft)
20.02.2020 05:00 22,5 C -1,1 C -3,4 C 11,9 C 42 % 76 % 1018,9 hPa 0,0 l/m 5,3 km/h (1 Bft) W-NW 292 -4,8 C -1,1 C 15,4 km/h (3 Bft)
20.02.2020 04:58 22,5 C -1,0 C -3,0 C 12,0 C 42 % 76 % 1018,9 hPa 0,0 l/m 5,0 km/h (1 Bft) W-NW 292 -4,7 C -1,0 C 9,7 km/h (2 Bft)
20.02.2020 04:56 22,5 C -1,0 C -3,3 C 12,0 C 42 % 76 % 1018,9 hPa 0,0 l/m 5,1 km/h (1 Bft) W 270 -4,7 C -1,0 C 9,7 km/h (2 Bft)
20.02.2020 04:54 22,5 C -0,9 C -2,6 C 12,0 C 42 % 76 % 1018,9 hPa 0,0 l/m 5,1 km/h (1 Bft) W-NW 292 -4,6 C -0,9 C 14,7 km/h (3 Bft)
20.02.2020 04:52 22,5 C -1,0 C -2,8 C 12,0 C 42 % 76 % 1018,9 hPa 0,0 l/m 4,8 km/h (1 Bft) W-NW 292 -4,7 C -1,0 C 15,9 km/h (3 Bft)
20.02.2020 04:50 22,5 C -1,0 C -2,9 C 12,0 C 42 % 76 % 1018,9 hPa 0,0 l/m 4,3 km/h (1 Bft) W 270 -4,7 C -1,0 C 15,9 km/h (3 Bft)
20.02.2020 04:48 22,5 C -1,1 C -3,3 C 12,0 C 42 % 76 % 1018,9 hPa 0,0 l/m 4,5 km/h (1 Bft) S-SW 202 -4,8 C -1,1 C 12,1 km/h (2 Bft)
20.02.2020 04:46 22,5 C -1,0 C -2,9 C 12,0 C 42 % 76 % 1018,9 hPa 0,0 l/m 4,7 km/h (1 Bft) W-NW 292 -4,7 C -1,0 C 10,4 km/h (2 Bft)
20.02.2020 04:44 22,5 C -1,0 C -3,2 C 12,0 C 42 % 76 % 1018,9 hPa 0,0 l/m 4,5 km/h (1 Bft) S-SO 157 -4,7 C -1,0 C 5,6 km/h (1 Bft)
20.02.2020 04:42 22,5 C -0,9 C -3,0 C 12,0 C 42 % 76 % 1018,9 hPa 0,0 l/m 5,3 km/h (1 Bft) W-NW 292 -4,6 C -0,9 C 5,1 km/h (1 Bft)
20.02.2020 04:40 22,5 C -0,9 C -2,9 C 12,0 C 42 % 76 % 1018,9 hPa 0,0 l/m 5,6 km/h (1 Bft) N 360 -4,6 C -0,9 C 11,8 km/h (2 Bft)
20.02.2020 04:38 22,5 C -0,9 C -2,8 C 12,0 C 42 % 76 % 1018,9 hPa 0,0 l/m 6,0 km/h (2 Bft) W 270 -4,6 C -0,9 C 11,8 km/h (2 Bft)
20.02.2020 04:36 22,5 C -0,9 C -2,6 C 12,1 C 42 % 76 % 1018,8 hPa 0,0 l/m 5,6 km/h (1 Bft) W-SW 247 -4,6 C -0,9 C 9,2 km/h (2 Bft)
20.02.2020 04:34 22,5 C -0,7 C -2,8 C 12,1 C 42 % 76 % 1018,8 hPa 0,0 l/m 5,5 km/h (1 Bft) W-NW 292 -4,4 C -0,7 C 16,7 km/h (3 Bft)
20.02.2020 04:32 22,5 C -0,9 C -2,6 C 12,1 C 42 % 76 % 1018,8 hPa 0,0 l/m 5,8 km/h (2 Bft) W-NW 292 -4,6 C -0,9 C 16,7 km/h (3 Bft)
20.02.2020 04:30 22,5 C -0,9 C -2,5 C 12,1 C 42 % 76 % 1018,8 hPa 0,0 l/m 5,5 km/h (1 Bft) W-SW 247 -4,6 C -0,9 C 13,8 km/h (3 Bft)
20.02.2020 04:28 22,5 C -0,9 C -2,8 C 12,1 C 42 % 76 % 1018,8 hPa 0,0 l/m 5,0 km/h (1 Bft) W 270 -4,6 C -0,9 C 12,1 km/h (2 Bft)
20.02.2020 04:26 22,5 C -0,9 C -3,0 C 12,1 C 42 % 76 % 1018,8 hPa 0,0 l/m 5,0 km/h (1 Bft) W-SW 247 -4,6 C -0,9 C 8,4 km/h (2 Bft)
20.02.2020 04:24 22,6 C -0,9 C -2,9 C 12,1 C 42 % 76 % 1018,8 hPa 0,0 l/m 5,1 km/h (1 Bft) W-NW 292 -4,6 C -0,9 C 16,2 km/h (3 Bft)
20.02.2020 04:22 22,6 C -0,9 C -3,0 C 12,1 C 42 % 76 % 1018,8 hPa 0,0 l/m 5,1 km/h (1 Bft) W-SW 247 -4,6 C -0,9 C 16,2 km/h (3 Bft)
20.02.2020 04:20 22,6 C -0,7 C -2,9 C 12,1 C 42 % 76 % 1018,8 hPa 0,0 l/m 4,7 km/h (1 Bft) SW 225 -4,4 C -0,7 C 11,3 km/h (2 Bft)
20.02.2020 04:18 22,6 C -0,7 C -2,6 C 12,2 C 42 % 76 % 1018,8 hPa 0,0 l/m 4,2 km/h (1 Bft) W-NW 292 -4,4 C -0,7 C 9,7 km/h (2 Bft)
20.02.2020 04:16 22,6 C -0,7 C -2,6 C 12,2 C 42 % 76 % 1018,9 hPa 0,0 l/m 4,7 km/h (1 Bft) W 270 -4,4 C -0,7 C 10,4 km/h (2 Bft)
20.02.2020 04:14 22,6 C -0,7 C -2,8 C 12,1 C 42 % 76 % 1018,9 hPa 0,0 l/m 4,5 km/h (1 Bft) W-SW 247 -4,4 C -0,7 C 13,3 km/h (3 Bft)
20.02.2020 04:12 22,6 C -0,6 C -2,4 C 12,2 C 42 % 76 % 1018,9 hPa 0,0 l/m 4,8 km/h (1 Bft) W-SW 247 -4,3 C -0,6 C 13,3 km/h (3 Bft)
20.02.2020 04:10 22,6 C -0,6 C -2,5 C 12,2 C 42 % 76 % 1018,9 hPa 0,0 l/m 5,5 km/h (1 Bft) W 270 -4,3 C -0,6 C 8,2 km/h (2 Bft)
20.02.2020 04:08 22,6 C -0,5 C -2,4 C 12,2 C 42 % 76 % 1018,9 hPa 0,0 l/m 6,1 km/h (2 Bft) W-SW 247 -4,2 C -0,5 C 17,4 km/h (3 Bft)
20.02.2020 04:06 22,6 C -0,5 C -2,5 C 12,2 C 42 % 76 % 1018,9 hPa 0,0 l/m 6,4 km/h (2 Bft) W-SW 247 -4,2 C -0,5 C 17,4 km/h (3 Bft)
20.02.2020 04:04 22,6 C -0,3 C -2,0 C 12,2 C 42 % 76 % 1018,9 hPa 0,0 l/m 6,8 km/h (2 Bft) SW 225 -4,0 C -0,7 C 18,6 km/h (3 Bft)
20.02.2020 04:02 22,6 C -0,5 C -2,0 C 12,2 C 42 % 76 % 1018,9 hPa 0,0 l/m 6,9 km/h (2 Bft) NW 315 -4,2 C -1,0 C 18,6 km/h (3 Bft)
20.02.2020 04:00 22,6 C -0,3 C -2,0 C 12,2 C 42 % 76 % 1018,9 hPa 0,0 l/m 7,1 km/h (2 Bft) W-NW 292 -4,0 C -1,0 C 13,0 km/h (3 Bft)
20.02.2020 03:58 22,6 C -0,3 C -2,0 C 12,2 C 42 % 76 % 1018,9 hPa 0,0 l/m 7,6 km/h (2 Bft) W-NW 292 -4,0 C -1,6 C 15,2 km/h (3 Bft)
20.02.2020 03:56 22,6 C -0,2 C -1,6 C 12,2 C 42 % 76 % 1018,9 hPa 0,0 l/m 7,7 km/h (2 Bft) W-SW 247 -3,9 C -1,6 C 15,2 km/h (3 Bft)
20.02.2020 03:54 22,6 C -0,2 C -1,5 C 12,3 C 42 % 76 % 1018,9 hPa 0,0 l/m 7,7 km/h (2 Bft) W-SW 247 -3,9 C -1,6 C 12,6 km/h (3 Bft)
20.02.2020 03:52 22,6 C -0,1 C -1,3 C 12,3 C 42 % 76 % 1018,9 hPa 0,0 l/m 7,4 km/h (2 Bft) W-SW 247 -3,8 C -1,1 C 12,3 km/h (3 Bft)
20.02.2020 03:50 22,6 C 0,0 C -1,1 C 12,3 C 42 % 75 % 1018,9 hPa 0,0 l/m 7,2 km/h (2 Bft) W-SW 247 -3,9 C -0,8 C 11,3 km/h (2 Bft)
20.02.2020 03:48 22,6 C 0,0 C -1,1 C 12,3 C 42 % 75 % 1018,9 hPa 0,0 l/m 7,2 km/h (2 Bft) W-SW 247 -3,9 C -0,8 C 12,8 km/h (3 Bft)
20.02.2020 03:46 22,6 C 0,0 C -0,8 C 12,3 C 42 % 75 % 1018,9 hPa 0,0 l/m 6,6 km/h (2 Bft) W-NW 292 -3,9 C -0,2 C 14,7 km/h (3 Bft)
20.02.2020 03:44 22,6 C 0,0 C -0,8 C 12,3 C 42 % 75 % 1018,9 hPa 0,0 l/m 6,6 km/h (2 Bft) W 270 -3,9 C -0,2 C 14,7 km/h (3 Bft)
20.02.2020 03:42 22,6 C 0,0 C -0,8 C 12,3 C 42 % 76 % 1018,9 hPa 0,0 l/m 6,4 km/h (2 Bft) W 270 -3,7 C 0,0 C 8,7 km/h (2 Bft)
20.02.2020 03:40 22,6 C 0,0 C -0,7 C 12,3 C 42 % 76 % 1018,9 hPa 0,0 l/m 6,4 km/h (2 Bft) SW 225 -3,7 C 0,0 C 15,9 km/h (3 Bft)
20.02.2020 03:38 22,6 C 0,0 C -0,8 C 12,3 C 42 % 76 % 1018,9 hPa 0,0 l/m 6,6 km/h (2 Bft) W-NW 292 -3,7 C -0,2 C 15,9 km/h (3 Bft)
20.02.2020 03:36 22,6 C -0,1 C -0,9 C 12,3 C 42 % 76 % 1018,9 hPa 0,0 l/m 6,3 km/h (2 Bft) W-NW 292 -3,8 C -0,1 C 14,2 km/h (3 Bft)
20.02.2020 03:34 22,6 C -0,1 C -0,9 C 12,3 C 42 % 76 % 1018,9 hPa 0,0 l/m 6,4 km/h (2 Bft) SW 225 -3,8 C -0,1 C 14,2 km/h (3 Bft)
20.02.2020 03:32 22,6 C -0,1 C -1,2 C 12,3 C 42 % 76 % 1018,9 hPa 0,0 l/m 6,3 km/h (2 Bft) W-NW 292 -3,8 C -0,1 C 9,4 km/h (2 Bft)
20.02.2020 03:30 22,7 C -0,1 C -1,1 C 12,3 C 42 % 76 % 1018,9 hPa 0,0 l/m 6,9 km/h (2 Bft) W-NW 292 -3,8 C -0,6 C 18,1 km/h (3 Bft)
20.02.2020 03:28 22,7 C -0,1 C -1,1 C 12,3 C 42 % 76 % 1018,9 hPa 0,0 l/m 6,9 km/h (2 Bft) W 270 -3,8 C -0,6 C 18,1 km/h (3 Bft)
20.02.2020 03:26 22,7 C -0,1 C -1,1 C 12,3 C 42 % 76 % 1018,9 hPa 0,0 l/m 6,9 km/h (2 Bft) W-NW 292 -3,8 C -0,6 C 12,1 km/h (2 Bft)
20.02.2020 03:24 22,7 C -0,1 C -1,1 C 12,3 C 42 % 76 % 1018,9 hPa 0,0 l/m 7,1 km/h (2 Bft) W 270 -3,8 C -0,8 C 14,2 km/h (3 Bft)
20.02.2020 03:22 22,7 C 0,0 C -1,1 C 12,4 C 42 % 76 % 1018,9 hPa 0,0 l/m 7,4 km/h (2 Bft) W 270 -3,7 C -1,0 C 17,6 km/h (3 Bft)
20.02.2020 03:20 22,7 C 0,0 C -1,2 C 12,3 C 42 % 76 % 1018,9 hPa 0,0 l/m 7,1 km/h (2 Bft) W-SW 247 -3,7 C -0,7 C 17,6 km/h (3 Bft)
20.02.2020 03:18 22,7 C -0,1 C -1,2 C 12,4 C 42 % 76 % 1018,9 hPa 0,0 l/m 7,4 km/h (2 Bft) W 270 -3,8 C -1,1 C 13,5 km/h (3 Bft)
20.02.2020 03:16 22,7 C 0,0 C -1,2 C 12,4 C 42 % 76 % 1019,3 hPa 0,0 l/m 7,7 km/h (2 Bft) W-NW 292 -3,7 C -1,3 C 13,3 km/h (3 Bft)
20.02.2020 03:14 22,7 C 0,2 C -0,8 C 12,4 C 43 % 76 % 1019,3 hPa 0,0 l/m 8,2 km/h (2 Bft) NW 315 -3,5 C -1,6 C 13,3 km/h (3 Bft)
20.02.2020 03:12 22,7 C 0,2 C -0,8 C 12,4 C 43 % 76 % 1019,3 hPa 0,0 l/m 8,2 km/h (2 Bft) NW 315 -3,5 C -1,6 C 13,3 km/h (3 Bft)
20.02.2020 03:10 22,7 C 0,2 C -0,8 C 12,4 C 42 % 76 % 1019,3 hPa 0,0 l/m 8,2 km/h (2 Bft) NW 315 -3,5 C -1,6 C 13,3 km/h (3 Bft)
20.02.2020 03:08 22,7 C 0,2 C -0,8 C 12,4 C 42 % 76 % 1019,3 hPa 0,0 l/m 8,2 km/h (2 Bft) NW 315 -3,5 C -1,6 C 13,3 km/h (3 Bft)
20.02.2020 03:06 22,7 C 0,2 C -0,8 C 12,4 C 42 % 76 % 1019,3 hPa 0,0 l/m 8,2 km/h (2 Bft) NW 315 -3,5 C -1,6 C 13,3 km/h (3 Bft)
20.02.2020 03:04 22,7 C 0,2 C -0,8 C 12,4 C 43 % 76 % 1019,3 hPa 0,0 l/m 8,2 km/h (2 Bft) NW 315 -3,5 C -1,6 C 16,9 km/h (3 Bft)
20.02.2020 03:02 22,7 C 0,2 C -0,7 C 12,5 C 43 % 76 % 1019,3 hPa 0,0 l/m 8,5 km/h (2 Bft) W-SW 247 -3,5 C -1,9 C 19,1 km/h (3 Bft)
20.02.2020 03:00 22,7 C 0,2 C -0,7 C 12,5 C 43 % 76 % 1019,3 hPa 0,0 l/m 8,5 km/h (2 Bft) W 270 -3,5 C -1,9 C 19,1 km/h (3 Bft)
20.02.2020 02:58 22,7 C 0,2 C -0,7 C 12,5 C 43 % 76 % 1019,3 hPa 0,0 l/m 8,0 km/h (2 Bft) W-NW 292 -3,5 C -1,4 C 17,1 km/h (3 Bft)
20.02.2020 02:56 22,7 C 0,2 C -0,7 C 12,5 C 43 % 76 % 1019,2 hPa 0,0 l/m 7,9 km/h (2 Bft) W-NW 292 -3,5 C -1,3 C 18,8 km/h (3 Bft)
20.02.2020 02:54 22,8 C 0,0 C -0,7 C 12,5 C 43 % 76 % 1019,2 hPa 0,0 l/m 7,7 km/h (2 Bft) NW 315 -3,7 C -1,3 C 19,6 km/h (3 Bft)
20.02.2020 02:52 22,8 C 0,0 C -0,7 C 12,5 C 43 % 76 % 1019,2 hPa 0,0 l/m 7,7 km/h (2 Bft) W-NW 292 -3,7 C -1,3 C 19,6 km/h (3 Bft)
20.02.2020 02:50 22,7 C 0,0 C -0,8 C 12,5 C 43 % 76 % 1019,2 hPa 0,0 l/m 7,4 km/h (2 Bft) W-SW 247 -3,7 C -1,0 C 15,2 km/h (3 Bft)
20.02.2020 02:48 22,8 C 0,2 C -0,7 C 12,5 C 43 % 76 % 1019,2 hPa 0,0 l/m 8,2 km/h (2 Bft) W 270 -3,5 C -1,6 C 12,6 km/h (3 Bft)
20.02.2020 02:46 22,8 C 0,2 C -0,7 C 12,5 C 43 % 76 % 1019,2 hPa 0,0 l/m 7,9 km/h (2 Bft) W-SW 247 -3,5 C -1,3 C 18,6 km/h (3 Bft)
20.02.2020 02:44 22,8 C 0,2 C -0,7 C 12,5 C 43 % 76 % 1019,2 hPa 0,0 l/m 8,0 km/h (2 Bft) W-NW 292 -3,5 C -1,4 C 18,6 km/h (3 Bft)
20.02.2020 02:42 22,8 C 0,2 C -0,7 C 12,5 C 43 % 76 % 1019,2 hPa 0,0 l/m 8,4 km/h (2 Bft) W-SW 247 -3,5 C -1,8 C 13,0 km/h (3 Bft)
20.02.2020 02:40 22,8 C 0,2 C -0,7 C 12,5 C 43 % 76 % 1019,2 hPa 0,0 l/m 8,0 km/h (2 Bft) W-SW 247 -3,5 C -1,4 C 29,2 km/h (5 Bft)
20.02.2020 02:38 22,8 C 0,0 C -0,7 C 12,5 C 43 % 76 % 1019,2 hPa 0,0 l/m 7,7 km/h (2 Bft) W-NW 292 -3,7 C -1,3 C 22,7 km/h (4 Bft)
20.02.2020 02:36 22,8 C 0,2 C -0,8 C 12,6 C 43 % 76 % 1019,3 hPa 0,0 l/m 7,2 km/h (2 Bft) W-NW 292 -3,5 C -0,6 C 14,5 km/h (3 Bft)
20.02.2020 02:34 22,8 C 0,2 C -0,8 C 12,6 C 43 % 76 % 1019,3 hPa 0,0 l/m 7,1 km/h (2 Bft) W-SW 247 -3,5 C -0,5 C 13,3 km/h (3 Bft)
20.02.2020 02:32 22,8 C 0,0 C -0,8 C 12,6 C 43 % 76 % 1019,3 hPa 0,0 l/m 6,4 km/h (2 Bft) W 270 -3,7 C 0,0 C 9,9 km/h (2 Bft)
20.02.2020 02:30 22,8 C 0,0 C -0,8 C 12,6 C 43 % 76 % 1019,3 hPa 0,0 l/m 6,6 km/h (2 Bft) W-NW 292 -3,7 C -0,2 C 9,9 km/h (2 Bft)
20.02.2020 02:28 22,8 C 0,0 C -0,8 C 12,6 C 43 % 76 % 1019,3 hPa 0,0 l/m 6,8 km/h (2 Bft) S-SW 202 -3,7 C -0,4 C 10,6 km/h (2 Bft)
20.02.2020 02:26 22,8 C 0,0 C -0,8 C 12,6 C 43 % 76 % 1019,3 hPa 0,0 l/m 7,1 km/h (2 Bft) W-SW 247 -3,7 C -0,7 C 10,6 km/h (2 Bft)
20.02.2020 02:24 22,8 C 0,0 C -0,8 C 12,6 C 43 % 76 % 1019,3 hPa 0,0 l/m 7,6 km/h (2 Bft) W-NW 292 -3,7 C -1,2 C 14,2 km/h (3 Bft)
20.02.2020 02:22 22,8 C 0,2 C -0,7 C 12,6 C 43 % 76 % 1019,3 hPa 0,0 l/m 7,7 km/h (2 Bft) SW 225 -3,5 C -1,1 C 16,7 km/h (3 Bft)
20.02.2020 02:20 22,8 C 0,2 C -0,7 C 12,6 C 43 % 76 % 1019,3 hPa 0,0 l/m 7,4 km/h (2 Bft) W-NW 292 -3,5 C -0,8 C 18,6 km/h (3 Bft)
20.02.2020 02:18 22,8 C 0,2 C -0,5 C 12,6 C 43 % 76 % 1019,3 hPa 0,0 l/m 7,7 km/h (2 Bft) W 270 -3,5 C -1,1 C 18,6 km/h (3 Bft)
20.02.2020 02:16 22,8 C 0,2 C -0,7 C 12,6 C 43 % 76 % 1019,2 hPa 0,0 l/m 7,2 km/h (2 Bft) W-SW 247 -3,5 C -0,6 C 17,4 km/h (3 Bft)
20.02.2020 02:14 22,8 C 0,0 C -0,7 C 12,7 C 43 % 76 % 1019,2 hPa 0,0 l/m 6,9 km/h (2 Bft) W-SW 247 -3,7 C -0,5 C 17,4 km/h (3 Bft)
20.02.2020 02:12 22,8 C 0,0 C -0,8 C 12,7 C 43 % 76 % 1019,2 hPa 0,0 l/m 6,9 km/h (2 Bft) W-NW 292 -3,7 C -0,5 C 12,3 km/h (3 Bft)
20.02.2020 02:10 22,8 C 0,0 C -0,8 C 12,7 C 43 % 76 % 1019,2 hPa 0,0 l/m 7,4 km/h (2 Bft) W-SW 247 -3,7 C -1,0 C 18,6 km/h (3 Bft)
20.02.2020 02:08 22,8 C 0,2 C -0,7 C 12,7 C 43 % 76 % 1019,2 hPa 0,0 l/m 7,6 km/h (2 Bft) W-SW 247 -3,5 C -1,0 C 18,6 km/h (3 Bft)
20.02.2020 02:06 22,8 C 0,2 C -0,7 C 12,7 C 43 % 76 % 1019,2 hPa 0,0 l/m 8,0 km/h (2 Bft) S-SW 202 -3,5 C -1,4 C 16,2 km/h (3 Bft)
20.02.2020 02:04 22,8 C 0,2 C -0,8 C 12,7 C 43 % 76 % 1019,2 hPa 0,0 l/m 9,0 km/h (2 Bft) W-NW 292 -3,5 C -2,4 C 16,2 km/h (3 Bft)
20.02.2020 02:02 22,8 C 0,2 C -0,7 C 12,7 C 43 % 76 % 1019,2 hPa 0,0 l/m 9,2 km/h (2 Bft) N-NW 337 -3,5 C -2,5 C 15,4 km/h (3 Bft)
20.02.2020 02:00 22,8 C 0,2 C -0,7 C 12,7 C 43 % 76 % 1019,2 hPa 0,0 l/m 9,0 km/h (2 Bft) W-NW 292 -3,5 C -2,4 C 27,8 km/h (4 Bft)
20.02.2020 01:58 22,8 C 0,2 C -0,7 C 12,7 C 43 % 76 % 1019,2 hPa 0,0 l/m 8,4 km/h (2 Bft) S-SW 202 -3,5 C -1,8 C 23,7 km/h (4 Bft)
20.02.2020 01:56 22,8 C 0,2 C -0,7 C 12,7 C 43 % 76 % 1019,2 hPa 0,0 l/m 7,9 km/h (2 Bft) W 270 -3,5 C -1,3 C 23,7 km/h (4 Bft)
20.02.2020 01:54 22,8 C 0,2 C -0,7 C 12,7 C 43 % 76 % 1019,2 hPa 0,0 l/m 7,6 km/h (2 Bft) W-SW 247 -3,5 C -1,0 C 22,4 km/h (4 Bft)
20.02.2020 01:52 22,8 C 0,2 C -0,7 C 12,7 C 43 % 76 % 1019,2 hPa 0,0 l/m 6,9 km/h (2 Bft) W 270 -3,5 C -0,3 C 16,2 km/h (3 Bft)
20.02.2020 01:50 22,9 C 0,0 C -0,8 C 12,7 C 43 % 76 % 1019,2 hPa 0,0 l/m 6,8 km/h (2 Bft) W-SW 247 -3,7 C -0,4 C 16,2 km/h (3 Bft)
20.02.2020 01:48 22,9 C 0,0 C -0,8 C 12,7 C 43 % 76 % 1019,2 hPa 0,0 l/m 7,1 km/h (2 Bft) S-SW 202 -3,7 C -0,7 C 15,7 km/h (3 Bft)
20.02.2020 01:46 22,9 C 0,0 C -0,8 C 12,8 C 43 % 77 % 1019,2 hPa 0,0 l/m 7,2 km/h (2 Bft) W-SW 247 -3,5 C -0,8 C 15,7 km/h (3 Bft)
20.02.2020 01:44 22,9 C 0,2 C -0,8 C 12,8 C 43 % 77 % 1019,2 hPa 0,0 l/m 6,8 km/h (2 Bft) W-SW 247 -3,3 C -0,2 C 14,0 km/h (3 Bft)
20.02.2020 01:42 22,9 C 0,2 C -0,7 C 12,8 C 43 % 77 % 1019,2 hPa 0,0 l/m 6,8 km/h (2 Bft) SW 225 -3,3 C -0,2 C 14,0 km/h (3 Bft)
20.02.2020 01:40 22,9 C 0,2 C -0,7 C 12,8 C 43 % 77 % 1019,2 hPa 0,0 l/m 6,6 km/h (2 Bft) SO 135 -3,3 C 0,0 C 21,5 km/h (4 Bft)
20.02.2020 01:38 22,9 C 0,0 C -0,9 C 12,8 C 43 % 77 % 1019,2 hPa 0,0 l/m 6,3 km/h (2 Bft) S-SW 202 -3,5 C 0,0 C 21,5 km/h (4 Bft)
20.02.2020 01:36 22,9 C 0,0 C -0,9 C 12,8 C 43 % 77 % 1018,9 hPa 0,0 l/m 5,5 km/h (1 Bft) W-SW 247 -3,5 C 0,0 C 9,4 km/h (2 Bft)
20.02.2020 01:34 22,9 C 0,0 C -0,8 C 12,8 C 43 % 77 % 1018,9 hPa 0,0 l/m 5,6 km/h (1 Bft) SW 225 -3,5 C 0,0 C 14,7 km/h (3 Bft)
20.02.2020 01:32 22,9 C 0,0 C -0,8 C 12,8 C 43 % 77 % 1018,9 hPa 0,0 l/m 5,5 km/h (1 Bft) W-SW 247 -3,5 C 0,0 C 14,7 km/h (3 Bft)
20.02.2020 01:30 22,9 C 0,0 C -0,8 C 12,8 C 43 % 77 % 1018,9 hPa 0,0 l/m 5,0 km/h (1 Bft) W-SW 247 -3,5 C 0,0 C 11,1 km/h (2 Bft)
20.02.2020 01:28 22,9 C 0,0 C -0,8 C 12,9 C 43 % 77 % 1018,9 hPa 0,0 l/m 5,0 km/h (1 Bft) W 270 -3,5 C 0,0 C 9,4 km/h (2 Bft)
20.02.2020 01:26 22,9 C 0,0 C -0,8 C 12,9 C 43 % 77 % 1018,9 hPa 0,0 l/m 5,1 km/h (1 Bft) W 270 -3,5 C 0,0 C 9,2 km/h (2 Bft)
20.02.2020 01:24 22,9 C 0,0 C -0,8 C 12,9 C 43 % 77 % 1018,9 hPa 0,0 l/m 5,8 km/h (2 Bft) W 270 -3,5 C 0,0 C 9,2 km/h (2 Bft)
20.02.2020 01:22 23,0 C -0,1 C -0,9 C 12,9 C 43 % 77 % 1018,9 hPa 0,0 l/m 6,0 km/h (2 Bft) W 270 -3,6 C -0,1 C 9,9 km/h (2 Bft)
20.02.2020 01:20 23,0 C -0,2 C -0,9 C 12,9 C 43 % 77 % 1018,9 hPa 0,0 l/m 6,3 km/h (2 Bft) W 270 -3,7 C -0,2 C 13,0 km/h (3 Bft)
20.02.2020 01:18 23,0 C -0,2 C -0,9 C 12,9 C 43 % 77 % 1018,9 hPa 0,0 l/m 6,1 km/h (2 Bft) W-SW 247 -3,7 C -0,2 C 13,0 km/h (3 Bft)
20.02.2020 01:16 23,0 C -0,2 C -1,1 C 13,0 C 43 % 77 % 1019,0 hPa 0,0 l/m 6,6 km/h (2 Bft) SW 225 -3,7 C -0,4 C 16,4 km/h (3 Bft)
20.02.2020 01:14 23,0 C -0,2 C -1,1 C 13,0 C 43 % 77 % 1019,0 hPa 0,0 l/m 6,6 km/h (2 Bft) NW 315 -3,7 C -0,4 C 16,4 km/h (3 Bft)
20.02.2020 01:12 23,0 C -0,2 C -1,2 C 13,0 C 43 % 77 % 1019,0 hPa 0,0 l/m 6,4 km/h (2 Bft) W 270 -3,7 C -0,2 C 15,0 km/h (3 Bft)
20.02.2020 01:10 23,0 C -0,2 C -1,2 C 13,0 C 43 % 77 % 1019,0 hPa 0,0 l/m 6,8 km/h (2 Bft) W-NW 292 -3,7 C -0,6 C 21,5 km/h (4 Bft)
20.02.2020 01:08 23,0 C -0,2 C -1,3 C 13,0 C 43 % 77 % 1019,0 hPa 0,0 l/m 6,6 km/h (2 Bft) W 270 -3,7 C -0,4 C 15,2 km/h (3 Bft)
20.02.2020 01:06 23,0 C -0,2 C -1,5 C 13,0 C 44 % 77 % 1019,0 hPa 0,0 l/m 6,4 km/h (2 Bft) W-NW 292 -3,7 C -0,2 C 15,2 km/h (3 Bft)
20.02.2020 01:04 23,0 C -0,3 C -1,6 C 13,0 C 44 % 77 % 1019,0 hPa 0,0 l/m 5,8 km/h (2 Bft) W-SW 247 -3,8 C -0,3 C 12,1 km/h (2 Bft)
20.02.2020 01:02 23,0 C -0,2 C -1,5 C 13,1 C 44 % 77 % 1019,0 hPa 0,0 l/m 6,1 km/h (2 Bft) W-SW 247 -3,7 C -0,2 C 12,8 km/h (3 Bft)
20.02.2020 01:00 23,0 C -0,2 C -1,5 C 13,1 C 44 % 77 % 1019,0 hPa 0,0 l/m 6,3 km/h (2 Bft) W-NW 292 -3,7 C -0,2 C 12,8 km/h (3 Bft)
20.02.2020 00:58 23,0 C -0,2 C -1,6 C 13,1 C 44 % 76 % 1019,0 hPa 0,0 l/m 6,3 km/h (2 Bft) W 270 -3,9 C -0,2 C 12,6 km/h (3 Bft)
20.02.2020 00:56 23,0 C -0,2 C -1,6 C 13,1 C 44 % 76 % 1018,9 hPa 0,0 l/m 6,0 km/h (2 Bft) SW 225 -3,9 C -0,2 C 10,6 km/h (2 Bft)
20.02.2020 00:54 23,0 C -0,1 C -1,3 C 13,1 C 44 % 76 % 1018,9 hPa 0,0 l/m 6,3 km/h (2 Bft) W-SW 247 -3,8 C -0,1 C 13,3 km/h (3 Bft)
20.02.2020 00:52 23,0 C -0,1 C -1,3 C 13,1 C 44 % 76 % 1018,9 hPa 0,0 l/m 5,8 km/h (2 Bft) W-SW 247 -3,8 C -0,1 C 14,5 km/h (3 Bft)
20.02.2020 00:50 23,0 C -0,1 C -1,3 C 13,1 C 44 % 76 % 1018,9 hPa 0,0 l/m 5,5 km/h (1 Bft) SW 225 -3,8 C -0,1 C 14,5 km/h (3 Bft)
20.02.2020 00:48 23,0 C -0,2 C -1,3 C 13,2 C 44 % 76 % 1018,9 hPa 0,0 l/m 5,3 km/h (1 Bft) S-SW 202 -3,9 C -0,2 C 14,2 km/h (3 Bft)
20.02.2020 00:46 23,0 C -0,1 C -1,1 C 13,2 C 44 % 76 % 1018,9 hPa 0,0 l/m 5,5 km/h (1 Bft) W-NW 292 -3,8 C -0,1 C 10,4 km/h (2 Bft)
20.02.2020 00:44 23,0 C -0,1 C -1,1 C 13,2 C 44 % 76 % 1018,9 hPa 0,0 l/m 6,1 km/h (2 Bft) W-SW 247 -3,8 C -0,1 C 15,7 km/h (3 Bft)
20.02.2020 00:42 23,0 C -0,1 C -1,1 C 13,2 C 44 % 76 % 1018,9 hPa 0,0 l/m 6,0 km/h (2 Bft) W 270 -3,8 C -0,1 C 15,7 km/h (3 Bft)
20.02.2020 00:40 23,0 C -0,1 C -1,1 C 13,2 C 45 % 76 % 1018,9 hPa 0,0 l/m 5,3 km/h (1 Bft) SW 225 -3,8 C -0,1 C 11,6 km/h (2 Bft)
20.02.2020 00:38 23,0 C -0,1 C -1,1 C 13,2 C 45 % 76 % 1018,9 hPa 0,0 l/m 5,8 km/h (2 Bft) W-SW 247 -3,8 C -0,1 C 9,2 km/h (2 Bft)
20.02.2020 00:36 23,0 C -0,1 C -0,9 C 13,2 C 45 % 76 % 1018,9 hPa 0,0 l/m 6,1 km/h (2 Bft) W-SW 247 -3,8 C -0,1 C 17,4 km/h (3 Bft)
20.02.2020 00:34 23,0 C -0,1 C -1,1 C 13,3 C 45 % 75 % 1018,9 hPa 0,0 l/m 5,5 km/h (1 Bft) SW 225 -4,0 C -0,1 C 17,4 km/h (3 Bft)
20.02.2020 00:32 23,0 C -0,1 C -1,2 C 13,3 C 45 % 75 % 1018,9 hPa 0,0 l/m 5,0 km/h (1 Bft) W 270 -4,0 C -0,1 C 6,8 km/h (2 Bft)
20.02.2020 00:30 23,0 C -0,2 C -1,1 C 13,3 C 45 % 75 % 1018,9 hPa 0,0 l/m 4,8 km/h (1 Bft) W 270 -4,1 C -0,2 C 20,5 km/h (4 Bft)
20.02.2020 00:28 23,0 C -0,2 C -1,2 C 13,4 C 45 % 75 % 1018,9 hPa 0,0 l/m 5,0 km/h (1 Bft) W-SW 247 -4,1 C -0,2 C 20,5 km/h (4 Bft)
20.02.2020 00:26 23,0 C -0,2 C -1,2 C 13,4 C 45 % 75 % 1018,9 hPa 0,0 l/m 5,0 km/h (1 Bft) S-SW 202 -4,1 C -0,2 C 9,9 km/h (2 Bft)
20.02.2020 00:24 23,0 C -0,1 C -1,2 C 13,4 C 45 % 75 % 1018,9 hPa 0,0 l/m 5,5 km/h (1 Bft) W-SW 247 -4,0 C -0,1 C 10,6 km/h (2 Bft)
20.02.2020 00:22 23,0 C -0,1 C -1,2 C 13,4 C 45 % 75 % 1018,9 hPa 0,0 l/m 5,3 km/h (1 Bft) W-SW 247 -4,0 C -0,1 C 10,6 km/h (2 Bft)
20.02.2020 00:20 23,0 C -0,1 C -1,3 C 13,4 C 44 % 75 % 1018,9 hPa 0,0 l/m 6,1 km/h (2 Bft) W-NW 292 -4,0 C -0,1 C 18,6 km/h (3 Bft)
20.02.2020 00:18 23,0 C 0,0 C -1,2 C 13,5 C 44 % 75 % 1018,9 hPa 0,0 l/m 6,6 km/h (2 Bft) SW 225 -3,9 C -0,2 C 18,6 km/h (3 Bft)
20.02.2020 00:16 23,0 C 0,0 C -1,2 C 13,5 C 44 % 75 % 1018,8 hPa 0,0 l/m 6,3 km/h (2 Bft) NW 315 -3,9 C 0,0 C 18,6 km/h (3 Bft)
20.02.2020 00:14 23,0 C 0,2 C -1,1 C 13,6 C 44 % 75 % 1018,8 hPa 0,0 l/m 7,4 km/h (2 Bft) W-SW 247 -3,7 C -0,8 C 6,5 km/h (2 Bft)
20.02.2020 00:12 23,0 C 0,2 C -1,1 C 13,6 C 44 % 75 % 1018,8 hPa 0,0 l/m 7,4 km/h (2 Bft) W-SW 247 -3,7 C -0,8 C 6,5 km/h (2 Bft)
20.02.2020 00:10 23,0 C 0,2 C -1,1 C 13,6 C 44 % 75 % 1018,8 hPa 0,0 l/m 7,4 km/h (2 Bft) W-SW 247 -3,7 C -0,8 C 6,5 km/h (2 Bft)
20.02.2020 00:08 23,0 C 0,2 C -1,1 C 13,6 C 44 % 75 % 1018,8 hPa 0,0 l/m 7,4 km/h (2 Bft) W-SW 247 -3,7 C -0,8 C 6,5 km/h (2 Bft)
20.02.2020 00:06 23,0 C 0,2 C -1,1 C 13,6 C 44 % 75 % 1018,8 hPa 0,0 l/m 7,4 km/h (2 Bft) W-SW 247 -3,7 C -0,8 C 6,5 km/h (2 Bft)
20.02.2020 00:04 23,0 C 0,2 C -1,1 C 13,6 C 44 % 75 % 1018,8 hPa 0,0 l/m 7,4 km/h (2 Bft) W-SW 247 -3,7 C -0,8 C 11,6 km/h (2 Bft)
20.02.2020 00:02 23,0 C 0,2 C -0,9 C 13,6 C 44 % 75 % 1018,8 hPa 0,0 l/m 7,1 km/h (2 Bft) SW 225 -3,7 C -0,5 C 30,2 km/h (5 Bft)
20.02.2020 00:00 23,0 C 0,2 C -1,0 C 13,6 C 44 % 75 % 1018,8 hPa 0,0 l/m 7,1 km/h (2 Bft) W-NW 292 -3,7 C -0,5 C 30,2 km/h (5 Bft)
_ Min-Zeit 05:10 05:42 05:38 05:24 03:06 00:00 00:00 - 05:42 - - 05:42 02:02 04:42
Minimum _ 22,4 C -2,0 C -4,6 C 11,8 C 42 % 75 % 1018,8 hPa - 3,4 km/h (1 Bft) - - -5,6 C -2,5 C 5,1 km/h (1 Bft)
_ Max-Zeit 00:00 00:00 02:18 00:00 00:22 01:00 02:18 00:00 02:02 - - 01:40 02:32 00:00
Maximum _ 23,0 C 0,2 C -0,5 C 13,6 C 45 % 77 % 1019,3 hPa 0,0 l/m 9,2 km/h
N-NW (2 Bft)
- - -3,3 C 0,0 C 30,2 km/h
W-NW (5 Bft)
Durchschnitt _ 22,7 C -0,3 C -1,6 C 12,5 C 43 % 76 % 1019,0 hPa #0,0 l/m 6,3 km/h (2 Bft) W-SW - -4,0 C -0,8 C 14,0 km/h (3 Bft)